Tracking 18945 objects as of 21-Jan-2018
HD Live streaming from Space Station
objects crossing your sky now

DELTA 2 DEB

Track DELTA 2 DEB now!
10-day predictions


NORAD ID: 27765
Int'l Code: 2000-040D
Perigee: 170.8 km
Apogee: 1,759.6 km
Inclination: 38.8 °
Period: 104.2 minutes
Semi major axis: 7336 km
RCS: 0.0144 m2 (small)
Launch date: July 16, 2000
Source: United States (US)
Launch site: AIR FORCE EASTERN TEST RANGE (AFETR)

Note: This is SATELLITE DEBRIS
aabbcc
Your satellite tracking list
Your tracking list is empty




NASA's NSSDC Master Catalog

Two Line Element Set (TLE):
1 27765U 00040D   18020.08129471 +.00262033 +25974-5 +24345-3 0  9993
2 27765 038.8121 300.7607 1082875 325.4846 027.9956 13.81637300457554
Source of the keplerian elements: AFSPC